Location: Ca�n Batista
(41.4099°N, 1.7752°E)
Time: 14:04:09
(UTC+00:00)

Cosmos 2341 Rocket - Pass Details

Date: 03 March 2021
Orbit: 968 x 1004 km, 82.9° (Epoch: 22 April)

Event Time Altitude Azimuth Distance (km) Brightness Sun altitude
Rises 18:27:40 0° 160° (SSE) 3,700 6.8 -8.6°
Reaches altitude 10° 18:30:23 10° 153° (SSE) 2,750 6.1 -9.1°
Maximum altitude 18:36:04 37° 88° (E) 1,493 4.5 -10.2°
Drops below altitude 10° 18:41:44 10° 24° (NNE) 2,743 6.1 -11.2°
Sets 18:44:25 0° 16° (NNE) 3,690 6.9 -11.7°
